Weather History for Munising, MI

Change the Weather History Date:

Monday, October 15, 2012

  Actual Average (KISQ) Record (KISQ)
Temperature  
Mean Temperature 41 °F -  
Max Temperature 46 °F 51 °F 65 °F (1963)
Min Temperature 34 °F 37 °F 24 °F (1998)
Degree Days  
Heating Degree Days 24    
Moisture  
Dew Point 37 °F    
Average Humidity 75    
Maximum Humidity 89    
Minimum Humidity 65    
Precipitation  
Precipitation 0.12 in - - ()
Sea Level Pressure  
Sea Level Pressure 29.80 in    
Wind  
Wind Speed 18 mph (NNW)    
Max Wind Speed 26 mph    
Max Gust Speed 33 mph    
Averages and records for this station are not official NWS values.
T = Trace of Precipitation, MM = Missing Value Source: NWS Daily Summary

Daily Weather History Graph

Daily Weather History Graph

Search for Another Location

Airport:

Trip Planner

Search our weather history database for the weather conditions in past years. The results will help you decide how hot, cold, wet, or windy it might be!

Date:

Astronomy

Oct. 15, 2012 Rise Set
Actual Time 8:04 AM EDT 6:59 PM EDT
Civil Twilight 7:34 AM EDT 7:29 PM EDT
Nautical Twilight 6:59 AM EDT 8:04 PM EDT
Astronomical Twilight 6:24 AM EDT 8:39 PM EDT
Moon 8:17 AM EDT (10/15) 6:53 PM EDT (10/15)
Length of Visible Light 11h 55m
Length of Day
10h 54m
New Moon, 0% of the Moon is Illuminated
Oct 15
New Moon
Oct 21
First Quarter
Oct 29
Full
Nov 6
Last Quarter
Nov 13
New

Hourly Weather History & Observations

Time (EDT) Temp. Windchill Dew Point Humidity Pressure Visibility Wind Dir Wind Speed Gust Speed Precip Events Conditions
12:56 AM 45.0 °F 36.9 °F 41.0 °F 86% 29.60 in - North 20.7 mph 32.2 mph 0.01 in   Unknown
1:56 AM 45.0 °F 37.1 °F 41.0 °F 86% 29.62 in - North 19.6 mph - 0.04 in   Unknown
2:56 AM 45.0 °F 37.6 °F 41.0 °F 86% 29.63 in - North 17.3 mph - 0.02 in   Unknown
3:56 AM 45.0 °F 36.9 °F 39.9 °F 82% 29.64 in - North 20.7 mph 27.6 mph 0.04 in   Unknown
4:56 AM 45.0 °F 36.9 °F 39.9 °F 82% 29.66 in - North 20.7 mph 31.1 mph 0.01 in   Unknown
5:56 AM 46.0 °F 38.3 °F 39.0 °F 76% 29.69 in - North 20.7 mph 32.2 mph N/A   Unknown
6:56 AM 46.0 °F 38.0 °F 39.0 °F 76% 29.71 in - North 21.9 mph 31.1 mph N/A   Unknown
7:56 AM 46.0 °F 38.0 °F 37.0 °F 71% 29.74 in - NNW 21.9 mph 32.2 mph N/A   Unknown
8:56 AM 46.0 °F 37.4 °F 37.0 °F 71% 29.76 in - North 25.3 mph 33.4 mph N/A   Unknown
9:56 AM 46.0 °F 37.2 °F 37.0 °F 71% 29.78 in - North 26.5 mph 33.4 mph N/A   Unknown
10:56 AM 46.0 °F 38.0 °F 37.0 °F 71% 29.81 in - NNW 21.9 mph 31.1 mph N/A   Unknown
11:56 AM 46.0 °F 38.3 °F 37.0 °F 71% 29.83 in - North 20.7 mph 25.3 mph N/A   Unknown
12:56 PM 45.0 °F 37.4 °F 36.0 °F 71% 29.85 in - NNW 18.4 mph 28.8 mph N/A   Unknown
1:56 PM 44.1 °F 36.2 °F 36.0 °F 73% 29.86 in - NNW 18.4 mph 27.6 mph N/A   Unknown
2:56 PM 45.0 °F 37.1 °F 36.0 °F 71% 29.86 in - North 19.6 mph - N/A   Unknown
3:56 PM 45.0 °F 37.6 °F 34.0 °F 65% 29.88 in - NNW 17.3 mph - N/A   Unknown
4:56 PM 45.0 °F 37.6 °F 35.1 °F 68% 29.90 in - NNW 17.3 mph - N/A   Unknown
5:56 PM 45.0 °F 38.5 °F 35.1 °F 68% 29.91 in - North 13.8 mph - N/A   Unknown
6:56 PM 45.0 °F 39.7 °F 35.1 °F 68% 29.90 in - North 10.4 mph - N/A   Unknown
7:56 PM 45.0 °F 40.1 °F 34.0 °F 65% 29.91 in - North 9.2 mph - N/A   Unknown
8:56 PM 45.0 °F 41.8 °F 35.1 °F 68% 29.92 in - North 5.8 mph - N/A   Unknown
9:56 PM 42.1 °F - 34.0 °F 73% 29.93 in - Calm Calm - N/A   Unknown
10:56 PM 36.0 °F 32.1 °F 32.0 °F 86% 29.92 in - South 4.6 mph - N/A   Unknown
11:56 PM 34.0 °F 27.2 °F 30.9 °F 89% 29.91 in - South 8.1 mph - N/A   Unknown